1514422801.0,22927,5.0,71554.8,-5.99,-6.93,-6.93,0,*59
1514422802.27,22928,5.0,71508.0,-5.99,-6.93,-6.97,0,*52
1514422803.54,22929,5.0,71504.5,-5.99,-6.93,-6.93,0,*57
1514422804.76,22930,5.0,71518.8,-5.99,-6.85,-6.85,0,*5F
1514422806.02,22931,5.0,71534.3,-5.99,-6.97,-7.05,0,*54
1514422807.27,22932,5.0,71500.5,-5.99,-7.05,-7.11,0,*58
1514422808.51,22933,5.0,71502.5,-5.99,-7.05,-7.11,0,*59
1514422809.78,22934,5.0,71552.3,-5.99,-6.93,-6.97,0,*5F
1514422811.01,22935,5.0,71552.0,-6.01,-6.97,-7.11,0,*57
1514422812.21,22936,5.0,71538.3,-6.01,-7.11,-7.19,0,*53
1514422813.43,22937,5.0,71426.5,-5.99,-7.11,-7.19,0,*50
1514422814.68,22938,5.0,71414.3,-5.99,-7.19,-7.31,0,*5D
1514422815.88,22939,5.0,71474.0,-6.01,-7.11,-7.11,0,*54
1514422817.15,22940,5.0,71488.8,-5.99,-6.93,-7.05,0,*56
1514422818.36,22941,5.0,71492.3,-6.01,-6.85,-6.97,0,*58
1514422819.63,22942,5.0,71498.3,-5.99,-6.93,-6.97,0,*5E
1514422820.88,22943,5.0,71492.5,-5.99,-6.85,-6.97,0,*58
1514422822.09,22944,5.0,71496.5,-5.99,-6.85,-6.85,0,*5C
1514422823.31,22945,5.0,71502.0,-5.99,-6.85,-6.85,0,*5D
1514422824.55,22946,5.0,71502.3,-5.99,-6.85,-6.93,0,*59
1514422825.74,22947,5.0,71484.0,-6.01,-6.81,-6.85,0,*59
1514422826.96,22948,5.0,71498.0,-6.01,-6.85,-6.93,0,*55
1514422828.15,22949,5.0,71502.0,-6.01,-6.85,-6.85,0,*53
1514422829.4,22950,5.0,71500.0,-5.99,-6.93,-6.85,0,*5E
1514422830.61,22951,5.0,71476.8,-5.99,-6.85,-6.85,0,*58
1514422831.85,22952,5.0,71490.3,-6.01,-6.93,-7.05,0,*57
1514422833.07,22953,5.0,71506.3,-5.99,-6.85,-6.85,0,*5A
1514422834.28,22954,5.0,71510.3,-5.99,-6.85,-6.85,0,*5D
1514422835.48,22955,5.0,71510.8,-6.01,-6.77,-6.85,0,*53
1514422836.71,22956,5.0,71500.8,-5.99,-6.81,-6.81,0,*5F
1514422837.94,22957,5.0,71494.8,-5.99,-6.81,-6.81,0,*5E
1514422839.16,22958,5.0,71494.0,-5.99,-6.81,-6.81,0,*51
1514422840.39,22959,5.0,71494.5,-5.99,-6.81,-6.81,0,*50
1514422841.61,22960,5.0,71498.5,-5.99,-6.81,-6.81,0,*5A
1514422842.83,22961,5.0,71494.3,-5.99,-6.77,-6.77,0,*5B
1514422844.06,22962,5.0,71486.3,-5.99,-6.77,-6.81,0,*51
1514422845.29,22963,5.0,71484.8,-5.99,-6.77,-6.81,0,*50
1514422846.51,22964,5.0,71480.0,-5.99,-6.77,-6.81,0,*57
1514422847.73,22965,5.0,71472.0,-5.99,-6.77,-6.77,0,*5F
1514422848.96,22966,5.0,71478.3,-5.99,-6.81,-6.81,0,*5C
1514422850.18,22967,5.0,71482.0,-5.99,-6.81,-6.77,0,*54
1514422851.4,22968,5.0,71484.5,-5.99,-6.81,-6.81,0,*52
1514422852.63,22969,5.0,71492.5,-5.99,-6.77,-6.81,0,*5A
1514422853.82,22970,5.0,71454.8,-5.97,-6.73,-6.77,0,*51
1514422855.02,22971,5.0,71458.3,-5.97,-6.77,-6.77,0,*54
1514422856.21,22972,5.0,71436.5,-5.97,-6.77,-6.77,0,*57
1514422857.44,22973,5.0,71458.5,-5.99,-6.77,-6.81,0,*51
1514422858.66,22974,5.0,71460.8,-5.99,-6.81,-6.77,0,*56
1514422859.89,22975,5.0,71428.3,-5.99,-6.81,-6.81,0,*5E
1514422861.08,22976,5.0,71444.0,-5.97,-6.77,-6.77,0,*53
1514422862.28,22977,5.0,71430.3,-5.95,-6.73,-6.77,0,*54
1514422863.47,22978,5.0,71456.5,-5.97,-6.73,-6.77,0,*59
1514422864.67,22979,5.0,71462.0,-5.97,-6.73,-6.77,0,*58
1514422865.86,22980,5.0,71466.0,-5.97,-6.77,-6.73,0,*5E
1514422867.05,22981,5.0,71454.8,-5.97,-6.73,-6.73,0,*5B
1514422868.25,22982,5.0,71488.5,-5.97,-6.77,-6.77,0,*58
1514422869.45,22983,5.0,71484.0,-5.95,-6.77,-6.77,0,*5B
1514422870.65,22984,5.0,71480.8,-5.97,-6.77,-6.77,0,*5E
1514422871.84,22985,5.0,71484.0,-5.97,-6.73,-6.77,0,*5B
1514422873.04,22986,5.0,71486.0,-5.97,-6.77,-6.77,0,*5C
1514422874.23,22987,4.94,71474.3,-5.97,-6.77,-6.77,0,*5D
1514422875.43,22988,5.0,71484.8,-5.97,-6.77,-6.77,0,*52
1514422876.62,22989,5.0,71482.3,-5.97,-6.77,-6.77,0,*53
1514422877.82,22990,5.0,71484.3,-5.97,-6.77,-6.77,0,*5B
1514422879.03,22991,5.0,71486.8,-5.95,-6.81,-6.81,0,*58
1514422880.22,22992,5.0,71452.8,-5.97,-6.89,-6.89,0,*59
1514422881.43,22993,5.0,71474.5,-5.95,-6.81,-6.81,0,*5A
1514422882.64,22994,5.0,71494.8,-5.95,-6.89,-6.81,0,*55
1514422883.84,22995,5.0,71490.0,-5.97,-6.81,-6.81,0,*5E
1514422885.05,22996,5.0,71490.5,-5.95,-6.81,-6.81,0,*5F
1514422886.26,22997,5.0,71516.3,-5.95,-6.77,-6.89,0,*5F
1514422887.46,22998,5.0,71492.5,-5.95,-6.89,-6.89,0,*51
1514422888.68,22999,5.0,71526.5,-5.95,-6.89,-6.93,0,*5B
1514422889.9,23000,5.0,71504.3,-5.95,-6.81,-6.81,0,*58
1514422891.11,23001,5.0,71512.5,-5.95,-6.77,-6.81,0,*50
1514422892.3,23002,5.0,71488.5,-5.97,-6.73,-6.81,0,*55
1514422893.5,23003,5.0,71498.8,-5.97,-6.73,-6.73,0,*59
1514422894.7,23004,5.0,71472.0,-5.95,-6.73,-6.77,0,*58
1514422895.89,23005,5.0,71498.8,-5.97,-6.77,-6.77,0,*5F
1514422897.1,23006,5.0,71496.8,-5.95,-6.77,-6.77,0,*5E
1514422898.29,23007,5.0,71496.0,-5.97,-6.77,-6.77,0,*5D
1514422899.49,23008,5.0,71508.8,-5.97,-6.77,-6.73,0,*56
1514422900.68,23009,5.0,71502.3,-5.97,-6.73,-6.77,0,*57
1514422901.88,23010,5.0,71494.0,-5.95,-6.77,-6.77,0,*59
1514422903.08,23011,5.0,71492.3,-5.95,-6.73,-6.77,0,*5C
1514422904.28,23012,5.0,71478.5,-5.97,-6.77,-6.77,0,*59
1514422905.48,23013,5.0,71476.0,-5.95,-6.77,-6.77,0,*5A
1514422906.69,23014,5.0,71466.8,-5.95,-6.73,-6.77,0,*59
1514422907.89,23015,5.0,71436.5,-5.95,-6.77,-6.77,0,*5C
1514422909.09,23016,5.0,71458.5,-5.97,-6.81,-6.89,0,*55
1514422910.3,23017,5.0,71462.5,-5.95,-6.81,-6.81,0,*5E
1514422911.5,23018,5.0,71466.0,-5.95,-6.81,-6.89,0,*59
1514422912.71,23019,5.0,71482.3,-5.95,-6.81,-6.81,0,*50
1514422913.92,23020,5.0,71458.5,-5.95,-6.89,-6.81,0,*52
1514422915.12,23021,5.0,71442.5,-5.95,-6.81,-6.89,0,*53
1514422916.33,23022,5.0,71430.3,-5.97,-6.81,-6.81,0,*5A
1514422917.54,23023,5.0,71442.8,-5.95,-6.89,-6.81,0,*51
1514422918.75,23024,5.0,71462.8,-5.95,-6.77,-6.81,0,*57
1514422919.94,23025,5.0,71476.8,-5.97,-6.77,-6.77,0,*5D
1514422921.14,23026,5.0,71460.5,-5.95,-6.77,-6.77,0,*5C
1514422922.35,23027,5.0,71466.8,-5.95,-6.73,-6.77,0,*59
1514422923.55,23028,5.0,71466.5,-5.95,-6.77,-6.77,0,*52
1514422924.76,23029,5.0,71456.5,-5.95,-6.77,-6.81,0,*5A
1514422925.97,23030,5.0,71470.0,-5.95,-6.81,-6.81,0,*5B
1514422927.18,23031,5.0,71466.3,-5.95,-6.81,-6.77,0,*53
1514422928.38,23032,5.0,71440.0,-5.95,-6.77,-6.77,0,*59
1514422929.59,23033,5.0,71424.3,-5.95,-6.77,-6.77,0,*58
1514422930.8,23034,5.0,71432.3,-5.95,-6.81,-6.81,0,*5F
1514422932.01,23035,5.0,71452.0,-5.95,-6.81,-6.81,0,*5E
1514422933.21,23036,5.0,71458.3,-5.97,-6.77,-6.81,0,*56
1514422934.42,23037,5.0,71436.0,-5.95,-6.81,-6.81,0,*5C
1514422935.63,23038,5.0,71470.0,-5.95,-6.73,-6.81,0,*5E
1514422936.86,23039,5.0,71472.3,-5.93,-6.77,-6.77,0,*54
1514422938.08,23040,5.0,71484.8,-5.93,-6.77,-6.77,0,*5A
1514422939.29,23041,5.0,71478.3,-5.95,-6.77,-6.77,0,*5D
1514422940.52,23042,5.0,71482.3,-5.93,-6.77,-6.81,0,*51
1514422941.73,23043,5.0,71466.8,-5.95,-6.77,-6.81,0,*56
1514422942.94,23044,5.0,71450.8,-5.95,-6.77,-6.81,0,*51
1514422944.14,23045,5.0,71448.0,-5.97,-6.77,-6.81,0,*52
1514422945.35,23046,5.0,71438.8,-5.95,-6.77,-6.81,0,*53
1514422946.56,23047,5.0,71440.5,-5.95,-6.81,-6.81,0,*5B
1514422947.8,23048,5.0,71450.3,-5.93,-6.81,-6.81,0,*52
1514422949.01,23049,5.0,71460.0,-5.95,-6.81,-6.81,0,*55
1514422950.22,23050,5.0,71454.0,-5.95,-6.81,-6.81,0,*5D
1514422951.43,23051,5.0,71444.3,-5.95,-6.81,-6.89,0,*54
1514422952.64,23052,5.0,71436.8,-5.95,-6.81,-6.81,0,*5F
1514422953.83,23053,5.0,71436.3,-5.97,-6.81,-6.89,0,*54
1514422955.04,23054,5.0,71456.8,-5.95,-6.77,-6.81,0,*50
1514422956.24,23055,5.0,71476.5,-5.95,-6.73,-6.77,0,*5C
1514422957.46,23056,5.0,71466.0,-5.95,-6.81,-6.81,0,*5B
1514422958.66,23057,5.0,71460.3,-5.95,-6.89,-6.89,0,*5A
1514422959.86,23058,5.0,71448.5,-5.95,-6.81,-6.89,0,*5D
1514422961.07,23059,5.0,71446.0,-5.95,-6.81,-6.81,0,*54
1514422962.28,23060,5.0,71426.5,-5.95,-6.89,-6.81,0,*56
1514422963.48,23061,5.0,71434.8,-5.95,-6.81,-6.89,0,*57
1514422964.7,23062,5.0,71446.3,-5.95,-6.81,-6.81,0,*5C
1514422965.9,23063,5.0,71456.3,-5.95,-6.77,-6.81,0,*54
1514422967.12,23064,5.0,71456.3,-5.95,-6.81,-6.81,0,*5A
1514422968.33,23065,5.0,71450.3,-5.95,-6.81,-6.81,0,*5B
1514422969.54,23066,5.0,71468.3,-5.95,-6.77,-6.81,0,*51
1514422970.75,23067,5.0,71466.5,-5.95,-6.77,-6.81,0,*50
1514422971.95,23068,5.0,71470.3,-5.95,-6.77,-6.77,0,*56
1514422973.16,23069,5.0,71470.3,-5.95,-6.77,-6.77,0,*57
1514422974.35,23070,5.0,71470.5,-5.97,-6.77,-6.77,0,*5D
1514422975.56,23071,5.0,71470.0,-5.95,-6.77,-6.77,0,*5E
1514422976.76,23072,5.0,71484.0,-5.95,-6.77,-6.77,0,*5D
1514422977.99,23073,5.0,71488.5,-5.93,-6.77,-6.77,0,*5A
1514422979.21,23074,5.0,71502.5,-5.93,-6.73,-6.77,0,*59
1514422980.44,23075,5.0,71484.3,-5.93,-6.77,-6.73,0,*58
1514422981.64,23076,5.0,71464.8,-5.95,-6.77,-6.77,0,*59
1514422982.85,23077,4.94,71476.3,-5.95,-6.77,-6.73,0,*5C
1514422984.05,23078,5.0,71482.3,-5.95,-6.77,-6.77,0,*57
1514422985.25,23079,5.0,71480.5,-5.97,-6.81,-6.81,0,*54
1514422986.47,23080,5.0,71480.8,-5.95,-6.81,-6.81,0,*50
1514422987.67,23081,5.0,71484.0,-5.95,-6.73,-6.77,0,*55
1514422988.87,23082,5.0,71476.0,-5.95,-6.73,-6.77,0,*56
1514422990.07,23083,5.0,71488.0,-5.95,-6.77,-6.77,0,*53
1514422991.28,23084,5.0,71482.8,-5.95,-6.73,-6.81,0,*59
1514422992.48,23085,5.0,71480.0,-5.95,-6.73,-6.77,0,*51
1514422993.7,23086,5.0,71478.0,-5.93,-6.73,-6.77,0,*54
1514422994.91,23087,5.0,71466.5,-5.95,-6.77,-6.77,0,*57
1514422996.12,23088,5.0,71442.8,-5.95,-6.77,-6.81,0,*51
1514422997.35,23089,5.0,71468.8,-5.93,-6.77,-6.81,0,*56
1514422998.56,23090,5.0,71472.8,-5.95,-6.77,-6.73,0,*55
1514422999.76,23091,5.0,71482.8,-5.95,-6.73,-6.77,0,*54
1514423000.96,23092,5.0,71490.5,-5.95,-6.77,-6.73,0,*57
1514423002.19,23093,5.0,71494.3,-5.93,-6.77,-6.77,0,*54
1514423003.42,23094,5.0,71482.5,-5.93,-6.77,-6.77,0,*53
1514423004.64,23095,5.0,71462.0,-5.93,-6.77,-6.77,0,*52
1514423005.88,23096,5.0,71478.3,-5.93,-6.81,-6.81,0,*51
1514423007.1,23097,5.0,71488.0,-5.93,-6.77,-6.77,0,*50
1514423008.33,23098,5.0,71484.3,-5.93,-6.77,-6.77,0,*5F
1514423009.57,23099,5.0,71484.8,-5.93,-6.77,-6.81,0,*57
1514423010.8,23100,5.0,71480.3,-5.93,-6.81,-6.81,0,*5F
1514423012.03,23101,5.0,71482.5,-5.93,-6.81,-6.81,0,*5E
1514423013.27,23102,5.0,71484.3,-5.93,-6.81,-6.81,0,*5D
1514423014.5,23103,5.0,71490.5,-5.93,-6.81,-6.81,0,*5C
1514423015.74,23104,5.0,71488.8,-5.93,-6.81,-6.81,0,*5B
1514423016.97,23105,5.0,71490.0,-5.93,-6.77,-6.89,0,*5B
1514423018.17,23106,5.0,71484.5,-5.91,-6.81,-6.81,0,*5B
1514423019.4,23107,5.0,71484.0,-5.93,-6.81,-6.89,0,*50
1514423020.6,23108,5.0,71496.3,-5.91,-6.77,-6.77,0,*55
1514423021.84,23109,5.0,71502.5,-5.93,-6.81,-6.81,0,*56
1514423023.03,23110,5.0,71496.0,-5.91,-6.85,-6.85,0,*5C
1514423024.26,23111,5.0,71500.8,-5.93,-6.89,-6.89,0,*5F
1514423025.48,23112,5.0,71504.3,-5.93,-6.89,-6.89,0,*5C
1514423026.71,23113,5.0,71512.0,-5.93,-6.89,-6.89,0,*5D
1514423027.93,23114,5.0,71512.3,-5.93,-6.89,-6.89,0,*5A
1514423029.16,23115,5.0,71508.8,-5.93,-6.89,-6.89,0,*5B
1514423030.41,23116,5.0,71502.5,-5.93,-6.89,-6.93,0,*53
1514423031.66,23117,5.0,71502.8,-5.93,-6.81,-6.93,0,*5A
1514423032.89,23118,5.0,71500.0,-5.93,-6.81,-6.89,0,*5E
1514423034.14,23119,5.0,71508.5,-5.93,-6.81,-6.93,0,*54
1514423035.37,23120,5.0,71502.3,-5.93,-6.81,-6.81,0,*5D
1514423036.65,23121,5.0,71492.3,-5.93,-6.93,-7.01,0,*56
1514423037.93,23122,5.0,71494.3,-5.93,-6.93,-7.01,0,*55
1514423039.21,23123,5.0,71504.5,-5.93,-6.93,-6.93,0,*5E
1514423040.48,23124,5.0,71476.8,-5.93,-6.93,-7.01,0,*53
1514423041.71,23125,5.0,71482.5,-5.93,-6.81,-6.89,0,*50
1514423042.94,23126,4.94,71472.5,-5.93,-6.81,-6.89,0,*53
1514423044.17,23127,5.0,71482.3,-5.93,-6.81,-6.89,0,*52
1514423045.4,23128,5.0,71474.3,-5.93,-6.81,-6.89,0,*5D
1514423046.63,23129,5.0,71460.5,-5.93,-6.81,-6.81,0,*54
1514423047.84,23130,5.0,71456.3,-5.95,-6.81,-6.81,0,*5A
1514423049.04,23131,5.0,71454.8,-5.95,-6.81,-6.89,0,*53
1514423050.27,23132,5.0,71460.0,-5.93,-6.81,-6.89,0,*56
1514423051.5,23133,5.0,71480.8,-5.93,-6.81,-6.89,0,*57
1514423052.71,23134,5.0,71474.5,-5.95,-6.89,-6.81,0,*56
1514423053.92,23135,5.0,71470.8,-5.95,-6.81,-6.81,0,*5F
1514423055.12,23136,5.0,71472.3,-5.95,-6.89,-6.89,0,*5C
1514423056.33,23137,5.0,71490.3,-5.95,-6.81,-6.81,0,*5D
1514423057.56,23138,5.0,71482.0,-5.95,-6.89,-6.93,0,*59
1514423058.83,23139,5.0,71442.5,-5.93,-7.01,-7.01,0,*55
1514423060.11,23140,5.0,71466.8,-5.93,-7.01,-7.01,0,*5B
1514423061.36,23141,5.0,71474.0,-5.95,-7.01,-6.93,0,*56
1514423062.58,23142,5.0,71480.0,-5.95,-6.89,-6.93,0,*54
1514423063.81,23143,5.0,71480.3,-5.95,-6.89,-7.01,0,*5F
1514423065.05,23144,5.0,71432.5,-5.95,-7.01,-7.05,0,*5D
1514423066.3,23145,5.0,71440.8,-5.95,-7.05,-7.05,0,*58
1514423067.52,23146,5.0,71446.5,-5.95,-7.15,-7.05,0,*5A
1514423068.73,23147,5.0,71462.8,-5.95,-7.19,-7.19,0,*5A
1514423069.93,23148,5.0,71458.0,-5.95,-7.15,-7.19,0,*59
1514423071.18,23149,5.0,71468.3,-5.95,-6.93,-7.05,0,*5A
1514423072.4,23150,5.0,71454.0,-5.95,-6.89,-6.93,0,*57
1514423073.65,23151,5.0,71476.0,-5.97,-7.01,-7.01,0,*5F
1514423074.89,23152,5.0,71486.5,-5.95,-7.05,-7.05,0,*5E
1514423076.14,23153,5.0,71482.0,-5.97,-6.93,-6.93,0,*5D
1514423077.35,23154,5.0,71474.0,-5.97,-6.89,-7.01,0,*5B
1514423078.58,23155,5.0,71470.5,-5.95,-6.89,-6.93,0,*52
1514423079.78,23156,5.0,71468.3,-5.95,-6.89,-6.89,0,*5A
1514423081.0,23157,5.0,71466.8,-5.97,-6.81,-6.93,0,*5A
1514423082.2,23158,5.0,71472.0,-5.97,-6.81,-6.89,0,*5E
1514423083.39,23159,5.0,71468.0,-5.97,-6.89,-6.89,0,*57
1514423084.63,23160,5.0,71478.0,-5.97,-7.01,-7.01,0,*5D
1514423085.87,23161,5.0,71494.5,-5.97,-7.01,-7.01,0,*5C
1514423087.08,23162,5.0,71474.3,-5.95,-7.15,-7.15,0,*5D
1514423088.3,23163,5.0,71474.0,-5.97,-7.15,-7.27,0,*5F
1514423089.54,23164,5.0,71498.3,-5.97,-7.05,-6.93,0,*57
1514423090.8,23165,5.0,71444.5,-5.95,-6.93,-6.93,0,*5A
1514423092.01,23166,5.0,71456.8,-5.97,-6.89,-6.93,0,*50
1514423093.23,23167,5.0,71464.8,-5.97,-6.89,-6.93,0,*51
1514423094.44,23168,5.0,71436.3,-5.95,-7.15,-7.15,0,*57
1514423095.63,23169,5.0,71420.8,-5.97,-7.15,-7.15,0,*54
1514423096.87,23170,5.0,71440.0,-5.97,-7.05,-7.05,0,*5C
1514423098.08,23171,5.0,71446.3,-5.97,-6.89,-6.93,0,*56
1514423099.3,23172,5.0,71460.3,-5.97,-6.89,-6.93,0,*55
1514423100.52,23173,5.0,71456.5,-5.97,-6.93,-6.89,0,*54
1514423101.76,23174,5.0,71462.3,-5.97,-7.01,-6.93,0,*52
1514423102.97,23175,5.0,71464.5,-5.95,-6.89,-6.81,0,*53
1514423104.18,23176,5.0,71482.3,-5.95,-6.81,-6.89,0,*50
1514423105.38,23177,5.0,71482.3,-5.95,-6.89,-6.89,0,*59
1514423106.58,23178,5.0,71460.8,-5.97,-6.89,-6.81,0,*5C
1514423107.8,23179,5.0,71468.5,-5.97,-6.93,-6.89,0,*5E
1514423109.04,23180,5.0,71468.0,-5.97,-6.93,-6.93,0,*53
1514423110.26,23181,5.0,71464.0,-5.97,-6.81,-6.93,0,*51
1514423111.48,23182,5.0,71460.0,-5.97,-6.89,-6.93,0,*5A
1514423112.67,23183,5.0,71468.8,-5.97,-6.89,-6.89,0,*50
1514423113.88,23184,5.0,71482.0,-5.97,-6.81,-6.81,0,*57
1514423115.13,23185,5.0,71490.8,-5.95,-6.93,-6.93,0,*54
1514423116.33,23186,5.0,71482.8,-5.97,-6.81,-6.89,0,*5D
1514423117.55,23187,5.0,71480.8,-5.97,-6.93,-6.89,0,*5F
1514423118.74,23188,5.0,71462.5,-5.97,-6.81,-6.89,0,*53
1514423119.99,23189,5.0,71450.8,-5.97,-6.93,-6.93,0,*5A
1514423121.22,23190,5.0,71440.0,-5.97,-7.05,-7.05,0,*52
1514423122.45,23191,5.0,71460.8,-5.95,-6.89,-6.93,0,*5A
1514423123.65,23192,5.0,71470.5,-5.97,-6.81,-6.89,0,*58
1514423124.84,23193,5.0,71488.0,-5.97,-6.81,-6.89,0,*59
1514423126.07,23194,5.0,71478.8,-5.95,-6.89,-6.93,0,*5F
1514423127.27,23195,5.0,71474.8,-5.97,-6.89,-6.81,0,*5F
1514423128.47,23196,5.0,71484.0,-5.95,-6.89,-6.81,0,*5E
1514423129.67,23197,5.0,71454.0,-5.97,-6.81,-6.89,0,*5D
1514423130.87,23198,5.0,71444.3,-5.97,-6.81,-6.81,0,*5A
1514423132.08,23199,5.0,71438.5,-5.97,-6.81,-6.81,0,*5B
1514423133.29,23200,5.0,71450.8,-5.95,-6.81,-6.81,0,*5A
1514423134.48,23201,5.0,71456.5,-5.97,-6.77,-6.77,0,*59
1514423135.67,23202,5.0,71446.5,-5.97,-6.73,-6.73,0,*5A
1514423136.87,23203,5.0,71426.3,-5.97,-6.77,-6.73,0,*5F
1514423138.06,23204,5.0,71450.8,-5.97,-6.81,-6.77,0,*55
1514423139.27,23205,5.0,71454.0,-5.95,-6.81,-6.77,0,*56
1514423140.47,23206,5.0,71452.0,-5.95,-6.81,-6.77,0,*55
1514423141.69,23207,5.0,71450.0,-5.95,-6.81,-6.81,0,*5D
1514423142.88,23208,5.0,71456.3,-5.97,-6.81,-6.77,0,*59
1514423144.08,23209,5.0,71452.5,-5.97,-6.81,-6.81,0,*51
1514423145.29,23210,5.0,71454.8,-5.97,-6.77,-6.81,0,*50
1514423146.49,23211,5.0,71454.5,-5.97,-6.77,-6.81,0,*51
1514423147.7,23212,5.0,71448.5,-5.95,-6.77,-6.81,0,*50
1514423148.91,23213,5.0,71452.8,-5.95,-6.77,-6.81,0,*51
1514423150.12,23214,5.0,71458.3,-5.95,-6.77,-6.81,0,*56
1514423151.32,23215,5.0,71472.5,-5.97,-6.77,-6.81,0,*55
1514423152.52,23216,5.0,71484.0,-5.97,-6.77,-6.81,0,*56
1514423153.73,23217,5.0,71484.0,-5.95,-6.77,-6.81,0,*55
1514423154.94,23218,5.0,71496.8,-5.95,-6.77,-6.77,0,*53
1514423156.14,23219,5.0,71510.8,-5.95,-6.77,-6.77,0,*52
1514423157.34,23220,5.0,71530.0,-5.95,-6.77,-6.77,0,*58
1514423158.54,23221,5.0,71548.8,-5.97,-6.77,-6.77,0,*5B
1514423159.74,23222,5.0,71518.0,-5.97,-6.77,-6.77,0,*58
1514423160.93,23223,5.0,71508.3,-5.97,-6.81,-6.77,0,*50
1514423162.13,23224,5.0,71500.0,-5.97,-6.81,-6.77,0,*57
1514423163.34,23225,5.0,71506.3,-5.95,-6.81,-6.81,0,*5D
1514423164.54,23226,5.0,71488.3,-5.97,-6.81,-6.81,0,*5C
1514423165.75,23227,5.0,71480.8,-5.95,-6.81,-6.81,0,*5F
1514423166.95,23228,5.0,71476.5,-5.97,-6.89,-6.81,0,*5A
1514423168.16,23229,5.0,71470.3,-5.95,-6.81,-6.81,0,*51
1514423169.37,23230,5.0,71462.8,-5.95,-6.81,-6.81,0,*59
1514423170.57,23231,5.0,71462.5,-5.97,-6.81,-6.89,0,*52
1514423171.77,23232,5.0,71466.3,-5.97,-6.81,-6.81,0,*59
1514423172.96,23233,5.0,71462.0,-5.97,-6.89,-6.89,0,*58
1514423174.21,23234,5.0,71458.8,-5.97,-6.93,-6.93,0,*5F
1514423175.45,23235,5.0,71456.3,-5.97,-7.01,-6.93,0,*54
1514423176.65,23236,5.0,71470.5,-5.95,-6.89,-6.89,0,*5F
1514423177.87,23237,5.0,71484.3,-5.97,-6.89,-6.93,0,*57
1514423179.12,23238,5.0,71488.5,-5.95,-7.01,-6.93,0,*5B
1514423180.37,23239,5.0,71484.8,-5.95,-7.01,-7.01,0,*50
1514423181.63,23240,5.0,71488.5,-5.95,-6.93,-7.01,0,*54
1514423182.82,23241,5.0,71502.5,-5.97,-6.89,-6.89,0,*5D
1514423184.03,23242,5.0,71516.3,-5.95,-6.81,-6.81,0,*5C
1514423185.23,23243,5.0,71512.8,-5.97,-6.81,-6.89,0,*57
1514423186.44,23244,5.0,71506.5,-5.97,-6.89,-7.01,0,*59
1514423187.64,23245,5.0,71508.0,-5.95,-6.89,-6.89,0,*5B
1514423188.84,23246,5.0,71488.8,-5.97,-6.89,-6.89,0,*5A
1514423190.06,23247,5.0,71494.0,-5.97,-6.81,-7.01,0,*52
1514423191.26,23248,5.0,71494.8,-5.95,-6.81,-6.89,0,*5E
1514423192.46,23249,5.0,71494.5,-5.97,-6.81,-6.89,0,*5D
1514423193.66,23250,5.0,71482.5,-5.97,-6.81,-6.81,0,*5D
1514423194.86,23251,5.0,71476.5,-5.97,-6.81,-6.81,0,*5C
1514423196.07,23252,5.0,71472.8,-5.95,-6.89,-6.81,0,*55
1514423197.27,23253,5.0,71476.8,-5.97,-6.81,-6.81,0,*5E
1514423198.48,23254,5.0,71482.3,-5.95,-6.81,-6.81,0,*5B
1514423199.68,23255,5.0,71486.3,-5.97,-6.77,-6.77,0,*58
1514423200.87,23256,5.0,71502.0,-5.97,-6.77,-6.77,0,*5B
1514423202.07,23257,5.0,71522.5,-5.97,-6.77,-6.77,0,*5A
1514423203.26,23258,5.0,71492.5,-5.97,-6.77,-6.77,0,*55
1514423204.46,23259,5.0,71494.3,-5.97,-6.77,-6.89,0,*55
1514423205.67,23260,5.0,71496.5,-5.95,-6.89,-6.81,0,*54
1514423206.87,23261,5.0,71502.0,-5.95,-6.89,-6.81,0,*55
1514423208.08,23262,5.0,71512.3,-5.95,-6.89,-6.89,0,*5E
1514423209.3,23263,5.0,71520.8,-5.95,-6.89,-6.93,0,*54
1514423210.51,23264,5.0,71518.8,-5.95,-6.81,-6.81,0,*58
1514423211.72,23265,5.0,71520.5,-5.97,-6.81,-6.81,0,*5B
1514423212.93,23266,5.0,71518.5,-5.95,-6.81,-6.81,0,*5A
1514423214.12,23267,5.0,71536.8,-5.97,-6.81,-6.77,0,*50
1514423215.32,23268,5.0,71542.3,-5.97,-6.89,-6.89,0,*56
1514423216.51,23269,5.0,71518.8,-5.97,-6.81,-6.89,0,*5F
1514423217.72,23270,5.0,71502.3,-5.95,-6.89,-6.81,0,*55
1514423218.93,23271,5.0,71490.8,-5.95,-6.81,-6.81,0,*5C
1514423220.16,23272,5.0,71486.5,-5.95,-6.89,-6.93,0,*54
1514423221.36,23273,5.0,71486.5,-5.95,-6.89,-6.81,0,*56
1514423222.58,23274,5.0,71486.3,-5.97,-6.89,-6.93,0,*50
1514423223.83,23275,5.0,71480.5,-5.95,-7.01,-7.01,0,*58
1514423225.05,23276,5.0,71480.5,-5.97,-6.89,-7.01,0,*58
1514423226.3,23277,5.0,71488.8,-5.95,-6.93,-6.93,0,*5A
1514423227.55,23278,5.0,71498.0,-5.97,-6.93,-6.93,0,*57
1514423228.75,23279,5.0,71492.0,-5.95,-6.89,-6.89,0,*54
1514423229.97,23280,5.0,71494.5,-5.97,-6.81,-6.93,0,*53
1514423231.16,23281,5.0,71506.5,-5.97,-6.81,-6.89,0,*59
1514423232.37,23282,5.0,71508.5,-5.95,-6.89,-6.89,0,*50
1514423233.59,23283,5.0,71518.3,-5.97,-6.93,-6.89,0,*58
1514423234.78,23284,5.0,71522.5,-5.97,-6.81,-6.89,0,*5C
1514423236.03,23285,5.0,71518.5,-5.97,-7.01,-7.01,0,*55
1514423237.28,23286,5.0,71530.8,-5.95,-6.93,-6.93,0,*54
1514423238.52,23287,5.0,71512.0,-5.97,-7.01,-7.01,0,*57
1514423239.76,23288,5.0,71482.3,-5.97,-6.93,-7.05,0,*56
1514423241.0,23289,5.0,71474.0,-5.97,-7.01,-7.01,0,*59
1514423242.24,23290,5.0,71496.8,-5.97,-7.01,-6.93,0,*5B
1514423243.48,23291,5.0,71498.0,-5.97,-7.01,-7.05,0,*54
1514423244.72,23292,5.0,71488.5,-5.97,-7.01,-6.93,0,*59
1514423245.96,23293,5.0,71486.8,-5.97,-7.01,-6.93,0,*58
1514423247.21,23294,5.0,71500.5,-5.97,-7.01,-6.93,0,*5F
1514423248.45,23295,5.0,71488.5,-5.97,-6.93,-7.01,0,*5E
1514423249.7,23296,5.0,71506.3,-5.97,-6.93,-7.01,0,*5D
1514423250.94,23297,5.0,71494.3,-5.97,-6.93,-7.01,0,*5C
1514423252.19,23298,5.0,71480.8,-5.97,-6.93,-7.01,0,*53
1514423253.43,23299,5.0,71490.5,-5.97,-6.93,-6.93,0,*58
1514423254.7,23300,5.0,71494.0,-5.99,-6.93,-6.97,0,*53
1514423255.92,23301,5.0,71540.5,-5.97,-6.89,-6.93,0,*53
1514423257.16,23302,5.0,71504.5,-5.97,-7.01,-7.01,0,*5B
1514423258.4,23303,5.0,71490.8,-5.97,-7.01,-7.05,0,*5E
1514423259.64,23304,5.0,71484.3,-5.97,-7.01,-6.93,0,*57
1514423260.9,23305,5.0,71480.3,-5.99,-7.05,-7.05,0,*52
1514423262.14,23306,5.0,71512.5,-5.99,-7.05,-7.11,0,*54
1514423263.37,23307,5.0,71466.8,-5.99,-7.11,-7.19,0,*58
1514423264.63,23308,5.0,71474.5,-5.99,-7.05,-7.05,0,*5F
1514423265.9,23309,5.0,71522.5,-5.99,-6.93,-6.97,0,*5A
1514423267.16,23310,5.0,71524.0,-5.99,-6.97,-7.05,0,*5C
1514423268.4,23311,5.0,71512.8,-6.01,-6.97,-7.05,0,*5F
1514423269.66,23312,5.0,71502.8,-5.99,-7.05,-7.05,0,*54
1514423270.86,23313,5.0,71548.3,-6.01,-7.11,-7.19,0,*5F
1514423272.13,23314,5.0,71532.8,-5.99,-6.97,-6.93,0,*56
1514423273.37,23315,5.0,71474.5,-6.01,-6.93,-6.93,0,*51
1514423274.61,23316,5.0,71480.0,-5.99,-6.85,-6.97,0,*53
1514423275.86,23317,5.0,71488.8,-6.01,-6.93,-6.93,0,*53
1514423277.1,23318,5.0,71452.3,-5.99,-7.05,-7.11,0,*5B
1514423278.38,23319,5.0,71468.8,-5.99,-6.93,-6.93,0,*5F
1514423279.64,23320,5.0,71482.8,-5.99,-6.93,-6.93,0,*55
1514423280.91,23321,5.0,71472.0,-5.99,-6.93,-6.93,0,*54
1514423282.16,23322,5.0,71468.0,-5.99,-6.81,-6.93,0,*54
1514423283.38,23323,5.0,71452.8,-5.99,-6.85,-6.85,0,*56
1514423284.62,23324,5.0,71470.0,-5.99,-6.85,-6.93,0,*56
1514423285.86,23325,5.0,71472.3,-5.99,-6.85,-6.93,0,*57
1514423287.07,23326,5.0,71476.8,-5.99,-6.85,-6.85,0,*53
1514423288.29,23327,5.0,71490.5,-5.99,-6.85,-6.85,0,*52
1514423289.5,23328,5.0,71486.5,-5.99,-6.85,-6.85,0,*5D
1514423290.73,23329,5.0,71482.5,-5.99,-6.85,-6.81,0,*58
1514423291.93,23330,5.0,71440.3,-6.01,-6.85,-6.81,0,*52
1514423293.17,23331,5.0,71448.5,-5.99,-6.85,-6.93,0,*52
1514423294.41,23332,5.0,71464.8,-6.01,-6.93,-7.05,0,*5A
1514423295.68,23333,5.0,71478.8,-5.99,-6.93,-6.97,0,*53
1514423296.91,23334,5.0,71474.3,-6.01,-7.05,-7.05,0,*52
1514423298.17,23335,5.0,71454.5,-5.99,-7.05,-7.05,0,*51
1514423299.43,23336,5.0,71460.3,-5.99,-7.05,-7.05,0,*52
1514423300.69,23337,5.0,71482.8,-5.99,-7.05,-7.05,0,*53
1514423301.96,23338,5.0,71470.0,-5.99,-7.05,-6.97,0,*56
1514423303.22,23339,5.0,71456.5,-5.99,-6.97,-7.05,0,*57
1514423304.48,23340,5.0,71462.0,-5.99,-6.97,-7.05,0,*59
1514423305.72,23341,5.0,71474.5,-6.01,-6.97,-7.05,0,*5A
1514423306.99,23342,5.0,71484.3,-5.99,-6.97,-6.97,0,*51
1514423308.26,23343,5.0,71480.3,-5.99,-6.97,-6.97,0,*50
1514423309.5,23344,5.0,71476.5,-6.01,-6.93,-6.97,0,*51
1514423310.74,23345,5.0,71484.3,-5.99,-6.85,-6.97,0,*55
1514423311.99,23346,5.0,71502.3,-6.01,-6.93,-6.97,0,*53
1514423313.23,23347,5.0,71496.8,-6.01,-6.93,-6.97,0,*52
1514423314.5,23348,5.0,71494.8,-5.99,-6.97,-6.97,0,*5B
1514423315.77,23349,5.0,71502.0,-5.99,-6.97,-6.97,0,*5A
1514423317.02,23350,5.0,71504.0,-6.01,-6.97,-6.97,0,*50
1514423318.28,23351,5.0,71516.0,-5.99,-6.97,-7.05,0,*59
1514423319.55,23352,5.0,71514.3,-5.99,-7.05,-6.97,0,*5A
1514423320.82,23353,5.0,71512.3,-5.99,-6.93,-6.93,0,*51
1514423322.06,23354,5.0,71502.0,-5.99,-6.85,-6.97,0,*55
1514423323.25,23355,5.0,71504.8,-6.01,-6.85,-6.85,0,*55